COSMOS 1159

Satellite information

Favourite Embed

Satellite Type and Status

PAYLOADIN ORBIT

Key statistics

Satellite COSMOS 1159 at a glance.

Uptime

16645

Days in orbit

Revolutions

≈ 12.5

Per day

Orbit

LEO

Low Earth Orbit

Inclination

74.0

Latest

Satellite identification and parameters

Extended collection of information and parameters for COSMOS 1159.

Object identification

Identified? True

Debris? False

Object name: COSMOS 1159

International designator: 1980-012D

Object number (NORAD): 11694

Object ID (CCSDS): 11694

Country: COMMONWEALTH OF INDEPENDENT STATES (CIS)

Current information (Y/N): Y

RCS size: MEDIUM

Orbital parameters

Period: 115.189 minutes

Inclination: 74.0247 deg

SMA: 7842.124 km

Apoapsis: 1478.53 km

Periapsis: 1449.448 km

RAAN: 333.31 deg

Eccentricy: 0.00185423

Argument of periapsis: 338.7272 deg

Mean anomaly: 135.7315 deg

Mean motion: 12.50121508 rev/day

Mean motion (dot): 0.00000003 rev/day2

B* drag term: 0.00012124527 1/REarth

Two-line elements (TLE)

Creation date: Sept. 7, 2025, 3:09 a.m.

Reference frame: TEME

Reference center: EARTH

Epoch: Sept. 6, 2025, 4:26 p.m. UTC

TLE line 0: 0 COSMOS 1159

TLE line 1: 1 11694U 80012D 25249.68474326 .00000003 00000-0 12125-3 0 9991

TLE line 2: 2 11694 74.0247 333.3100 0018542 338.7272 135.7315 12.50121508 79547

Live tracking on map

Real-time ground track for satellite COSMOS 1159.

In-orbit conjunctions

A list of the most updated potential collisions computed for object COSMOS 1159.

Target Orbit TCA Probability of collision Miss distance Type
CZ-4 DEB SSO 2024-11-01 13:48:13 0.005757427 113.0 (m) DEBRIS

Associated space launch

Military communications satellites

COSMOS 1159 was lifted into orbit during the mission ‘Kosmos-3M | Strela-1M 185-192’, on board a Kosmos-3M space rocket.

The launch took place on Feb. 11, 1980, 11:32 p.m. from 132/2.

For more information about the launch, click the button.

Launch to space Kosmos-3M | Strela-1M 185-192
Kosmos-3M | Strela-1M 185-192

Agency: N/A

Status: Launch Successful

Launch date: Feb. 11, 1980, 11:32 p.m. UTC

Rocket: Kosmos-3M

Launch pad: 132/2

Location: Plesetsk Cosmodrome, Russian Federation

...

Latest news about this satellite

There are no fresh news available about this satellite. Check back as we update our databases every day.


Newsletter sign-up

Weekly statistics, charts and insights to help you stay on top of the space industry.